Skip Page Navigation
NASA JPL Caltech
NASA Logo - Jet Propulsion Laboratory + View the NASA Portal
+ Center for Near-Earth Object Studies
JPL Home Earth Solar System Stars & Galaxies Technology
JPL Solar System Dynamics
BODIES ORBITS EPHEMERIDES TOOLS PHYSICAL DATA DISCOVERY FAQ SITE MAP
JPL Small-Body Database Browser
Search: [ help ]  
147595 Gojkomitic (2004 GE20)
Classification: Main-belt Asteroid          SPK-ID: 2147595
Ephemeris | Orbit Diagram | Orbital Elements | Mission Design | Physical Parameters | Discovery Circumstances | Close-Approach Data ]

[ show orbit diagram ]
Orbital Elements at Epoch 2459000.5 (2020-May-31.0) TDB
Reference: JPL 19 (heliocentric ecliptic J2000)
 Element Value Uncertainty (1-sigma)   Units 
e .09628337829087882 5.6605e-08  
a 2.541310158723535 1.4466e-08 au
q 2.296624231356704 1.4607e-07 au
i 2.790516606069629 5.4352e-06 deg
node 240.9472678428353 0.00010059 deg
peri 276.1655283000403 0.0001094 deg
M 36.1580885363139 3.8511e-05 deg
tp 2458851.876358235713
(2020-Jan-03.37635824)
0.00015851 TDB
period 1479.738371164404
4.05
1.2634e-05
3.459e-08
d
yr
n .2432862504719105 2.0773e-09 deg/d
Q 2.785996086090367 1.5859e-08 au
  Orbit Determination Parameters
   # obs. used (total)      543  
   data-arc span      7333 days (20.08 yr)  
   first obs. used      2000-04-25  
   last obs. used      2020-05-23  
   planetary ephem.      DE431  
   SB-pert. ephem.      SB431-N16  
   condition code      0  
   norm. resid. RMS      .59303  
   source      ORB  
   producer      Otto Matic  
   solution date      2020-Nov-12 14:16:09  

Additional Information
 Earth MOID = 1.30789 au 
 Jupiter MOID = 2.20719 au 
 T_jup = 3.437 
[ show covariance matrix ]

Ephemeris | Orbit Diagram | Orbital Elements | Mission Design | Physical Parameters | Discovery Circumstances | Close-Approach Data ]

Physical Parameter Table
Parameter Symbol Value Units Sigma Reference Notes
absolute magnitude H 16.52   n/a E2021B55  

147595 Gojkomitić           Discovered 2004 Apr. 14 by A. Knöfel and G. Lehmann at Drebach.
Serbian actor and stuntman Gojko Mitić (b. 1940) starred as a Native American in several German Western movies and the Karl May Festival in Bad Segeberg (Germany).
NOTE: some special characters may not display properly (any characters within {} are an attempt to place the proper accent above a character)
Reference: 20130127/MPCPages.arcLast Updated: 2013-01-31

[ show close-approach data ]
Ephemeris | Orbit Diagram | Orbital Elements | Mission Design | Physical Parameters | Discovery Circumstances | Close-Approach Data ]
ABOUT SSD CREDITS/AWARDS PRIVACY/COPYRIGHT GLOSSARY LINKS
FirstGov 2021-Mar-02 17:38 UT
(server date/time)  
NASA Home Page
Site Manager:   Ryan S. Park
Webmaster  Alan B. Chamberlin